Notices

What's New in latest Release from April 7th, 2021:

- Updated Glossary, including Speed of Maximum Gust, and Total Hourly Precipitation

- Updated national and regional climate services offices contacts and prices information

- Addition of station inventory lists for 1981-2010, 1971-2000, and 1961-1990 Normals.

If you haven't already, please take our survey and provide feedback about our website: https://eccc.sondage-survey.ca/f/LanguageSelection.aspx?s=442ca660-fcf1-47c0-95a9-59707d6fd709

Hourly Data Report for November 25, 2019

OTTAWA INTL A
ONTARIO
Current Station Operator: NAVCAN

45°19'00.000" N
75°40'00.000" W
114.90 m
6106001
71628
YOW

Download Data

Hourly Data (November 2019)
Hourly Data Report for November 25, 2019
TIME
LST
Temp Definition
°C
Dew Point Definition
°C
Rel Hum Definition
%
Precip. Amount Definition
mm

Wind Dir Definition
10's deg

Wind Spd Definition
km/h
Visibility Definition
km
Stn Press Definition
kPa
Hmdx Definition


Wind Chill Definition


Weather Definition


00:00 0.3 -1.7 86   21 7 24.1 98.57     LegendNANA
01:00 0.6 -1.9 83   18 8 24.1 98.58     Cloudy
02:00 0.8 -1.6 84   17 7 24.1 98.64     LegendNANA
03:00 1.5 -0.8 85   23 11 24.1 98.71     LegendNANA
04:00 2.1 -0.5 83   24 16 24.1 98.76     Mostly Cloudy
05:00 2.0 -0.4 84   23 15 24.1 98.81     LegendNANA
06:00 0.5 -1.2 88   23 13 24.1 98.87     LegendNANA
07:00 0.1 -1.2 90   23 14 24.1 98.97     Clear
08:00 0.5 -0.9 90   23 14 24.1 99.04     LegendNANA
09:00 2.3 0.0 85   23 14 24.1 99.10     LegendNANA
10:00 3.6 0.4 79   23 14 24.1 99.16     Mostly Cloudy
11:00 4.6 0.7 76   25 13 24.1 99.20     LegendNANA
12:00 5.3 0.6 72   21 12 24.1 99.18     LegendNANA
13:00 6.0 0.6 68   23 10 24.1 99.17     Mostly Cloudy
14:00 6.8 0.3 63   23 7 24.1 99.21     LegendNANA
15:00 6.7 -0.2 61   26 5 24.1 99.22     LegendNANA
16:00 6.7 0.1 63   36 2 24.1 99.27     Mostly Cloudy
17:00 5.5 -1.1 62   19 11 24.1 99.29     LegendNANA
18:00 3.8 -0.1 76   17 12 24.1 99.33     LegendNANA
19:00 3.2 1.2 87   18 8 12.9 99.44     Mainly Clear
20:00 2.7 1.5 92   18 11 12.9 99.49     LegendNANA
21:00 3.2 2.3 93   18 7 11.3 99.49     LegendNANA
22:00 3.8 2.9 93   18 10 11.3 99.51     Cloudy
23:00 4.3 3.4 94   16 8 8.1 99.53     Fog

Notes on Data Quality.

Legend

  • E = Estimated
  • M = Missing
  • NA = Not Available*
  • [empty] = Indicates an unobserved value
Date modified: